Location: Nyon
(46.3888°N, 6.2393°E)
Time: 02:25:05
(UTC+00:00)

Daily predictions for brighter satellites

Satellite Brightness Start Highest point End
(mag) Time Altitude Azimuth Time Altitude Azimuth Time Altitude Azimuth
CZ-4C R/B 4.4 00:06:34 22° N 00:06:34 22° N 00:10:35 10° NNE
Cosmos 2227 Rocket 4.4 00:52:28 10° NNW 00:54:07 19° N 00:54:07 19° N
SL-16 R/B 3.9 01:15:09 31° NNW 01:15:09 31° NNW 01:18:10 10° NNW
CZ-2D R/B 3.8 01:16:18 10° NNE 01:18:48 29° NNE 01:18:48 29° NNE
Lacrosse 5 4.0 01:29:27 21° ENE 01:29:27 21° ENE 01:31:18 10° ENE
ATLAS 5 CENTAUR R/B 4.1 01:30:41 19° NNE 01:30:41 19° NNE 01:32:16 10° NNE
Resurs 1-4 Rocket 3.8 01:23:25 10° NNE 01:25:56 29° NNE 01:25:56 29° NNE
USA 234 3.8 01:44:35 10° E 01:50:53 53° NNE 01:55:07 21° NW
Cosmos 1821 Rocket 4.2 01:53:36 10° N 01:59:53 64° ENE 02:00:05 64° E
Cosmos 1697 Rocket 3.3 02:01:35 54° ENE 02:01:35 54° ENE 02:06:06 10° NNE
Cosmos 1980 Rocket 3.1 02:05:36 40° ESE 02:05:40 40° ESE 02:10:56 10° NE
Cosmos 2263 Rocket 3.9 02:06:38 10° NNW 02:11:40 32° NE 02:16:42 10° ESE
Meteor 1-25 Rocket 4.4 02:09:34 10° N 02:14:52 71° NNE 02:14:52 71° NNE
CZ-3B R/B 3.3 02:25:23 38° NNE 02:25:23 38° NNE 02:30:04 10° NE
USA 305 4.2 02:27:21 38° NE 02:27:21 38° NE 02:30:03 10° ENE
ADEOS II 2.6 02:21:19 10° N 02:25:24 51° NNW 02:25:24 51° NNW
Nadezhda 3 Rocket 3.8 02:26:57 85° SSW 02:27:09 89° WNW 02:33:20 10° N
USA 306 4.1 02:31:23 41° NE 02:31:23 41° NE 02:34:15 10° ENE
ARIANE 5 R/B 2.6 02:26:21 10° NNE 02:31:22 70° E 02:31:22 70° E
Cosmos 1656 4.4 02:32:28 39° NNW 02:32:28 39° NNW 02:36:49 10° NNE
IDEFIX/ARIANE 42P 3.0 02:30:40 10° NNE 02:35:54 60° E 02:36:51 51° SE
IRS-1D 4.2 02:31:16 10° N 02:35:23 44° NNW 02:35:23 44° NNW
Meteor 1-14 Rocket 4.4 02:33:53 10° N 02:39:30 70° ENE 02:42:39 26° SSE
Cosmos 2228 Rocket 4.3 02:39:36 34° ESE 02:40:34 39° E 02:44:40 10° NNE
ASTEX 1 3.6 02:35:42 10° N 02:40:42 67° E 02:41:22 60° SE
SL-4 R/B 4.4 02:45:52 16° SE 02:46:40 17° SE 02:49:35 10° E
CZ-2D R/B 3.7 02:44:23 10° NNE 02:48:18 69° ENE 02:48:18 69° ENE
IRS-1C 4.1 02:47:31 10° N 02:52:48 62° WNW 02:52:48 62° WNW
USA 307 3.3 02:57:59 56° N 02:57:59 56° N 03:01:54 10° NE
Cosmos 1782 3.5 02:59:09 46° N 02:59:09 46° N 03:02:06 10° N
USA 267 3.2 02:51:49 10° NE 02:58:23 78° NW 03:00:27 47° WSW
NOSS 3-3 (A) 4.2 02:56:41 38° S 02:58:45 59° ESE 03:05:03 10° NE
NOSS 3-3 (C) 4.2 02:56:51 38° S 02:58:52 58° ESE 03:05:08 10° NE
Cosmos 1238 Rocket 3.9 02:52:44 10° N 02:59:23 86° W 03:04:08 18° S
SJ 16-02 2.1 02:55:10 10° NNW 02:59:28 52° ENE 03:03:46 10° SE
Cosmos 44 3.0 02:59:36 79° SSE 02:59:44 81° SE 03:04:24 10° NE
CZ-2C R/B 3.2 02:56:14 10° NNE 02:59:57 55° E 03:00:12 54° ESE
USA 308 3.2 03:01:02 56° NNW 03:01:02 56° NNW 03:05:05 10° NE
CZ-2D R/B 4.0 02:57:41 10° NNW 03:00:07 16° NW 03:00:07 16° NW
Cosmos 389 Rocket 3.6 03:02:26 38° N 03:02:26 38° N 03:04:45 10° N
Cosmos 2278 3.6 03:02:25 58° WSW 03:03:26 71° WNW 03:09:11 10° NNE
USA 276 3.6 03:04:24 35° NE 03:04:24 35° NE 03:06:43 10° ENE
Resurs 1-4 Rocket 4.1 03:04:56 10° NNW 03:07:01 14° NW 03:07:01 14° NW
H-2A R/B 2.4 03:04:39 10° SSE 03:08:59 66° ENE 03:13:25 10° N
Lacrosse 5 2.3 03:08:39 45° WNW 03:09:28 50° NNW 03:14:25 10° NE
ERBS 3.3 03:11:03 41° ESE 03:11:03 41° ESE 03:13:57 10° ENE
Cosmos 2369 4.1 03:11:29 41° WNW 03:12:19 43° NW 03:17:48 10° NNE
ATLAS 2AS CENTAUR R/B 4.0 03:05:50 10° NW 03:13:02 42° NE 03:19:42 10° ESE
ATLAS 5 CENTAUR R/B 4.0 03:12:12 12° NW 03:13:54 14° NNW 03:16:25 10° NNE
Cosmos 1339 Rocket 4.4 03:15:35 20° S 03:20:05 86° W 03:26:19 10° N
Landsat 5 3.6 03:17:04 10° SSE 03:21:35 89° E 03:26:06 10° NNW
Helios 1B 4.4 03:19:26 28° S 03:21:40 72° WSW 03:26:01 10° NNW
GENESIS II 4.4 03:21:04 51° S 03:21:55 70° ESE 03:25:57 10° NE
Meteor 1-11 Rocket 4.3 03:16:37 10° N 03:22:22 59° ENE 03:27:55 10° SSE
ADEOS Rocket 3.8 03:16:14 10° SE 03:22:49 57° ENE 03:28:47 10° N
CZ-4B R/B 3.9 03:21:22 10° ESE 03:23:57 23° ENE 03:26:35 10° NNE
Cosmos 972 4.4 03:25:29 44° WSW 03:26:46 58° WNW 03:31:35 10° NNE
ERS-2 2.5 03:28:12 10° SSE 03:31:49 63° ENE 03:35:27 10° N
Spot 4 Rocket 4.2 03:26:54 10° N 03:31:53 51° WNW 03:33:39 35° WSW
USA 234 3.2 03:27:20 10° SE 03:33:49 65° SW 03:40:19 10° NW
MSX 3.8 03:28:29 10° N 03:34:14 67° WNW 03:37:57 22° SSW
Meteor 1-27 Rocket 4.5 03:28:59 10° S 03:34:45 56° E 03:40:32 10° NNE
Cosmos 2360 Rocket 4.0 03:34:50 10° SSE 03:39:41 30° ESE 03:44:34 10° NE
X-37B 0.7 03:42:02 55° SSW 03:42:13 56° SSW 03:45:21 10° ESE
Cosmos 1536 3.6 03:38:24 10° N 03:42:26 55° ENE 03:46:25 10° SSE
Cosmos 1898 Rocket 3.5 03:37:25 10° NNW 03:42:42 88° ENE 03:47:59 10° SSE
Cosmos 1697 Rocket 3.9 03:43:20 21° WNW 03:45:00 24° NW 03:49:32 10° N
IRIDIUM 104 4.2 03:40:24 10° N 03:45:37 71° W 03:50:48 10° S
BREEZE M DEB (TANK) 3.9 03:32:29 10° WNW 03:47:18 58° SW 03:51:37 10° SE
CZ-4C R/B 4.5 03:41:22 10° NNW 03:47:21 32° NNE 03:54:14 10° E
SL-8 R/B 3.9 03:45:53 31° W 03:47:48 49° SSW 03:52:23 10° SE
Cosmos 1980 Rocket 2.9 03:47:24 26° W 03:49:43 37° NW 03:54:57 10° NNE
Cosmos 921 Rocket 3.3 03:52:49 29° WSW 03:54:22 42° WNW 03:58:23 10° N
IRIDIUM 114 4.3 03:49:36 10° N 03:54:44 59° W 03:59:51 10° SSW
Cosmos 2263 Rocket 2.4 03:50:23 10° NW 03:55:48 48° WSW 04:01:13 10° S
Cosmos 2322 Rocket 2.4 03:50:35 10° SSW 03:56:14 73° ESE 04:01:56 10° NNE
USA 32 3.9 03:55:09 10° N 04:00:25 77° W 04:05:39 10° S
Cosmos 1844 Rocket 3.8 03:56:24 10° NNW 04:01:52 47° ENE 04:07:18 10° SE
Cosmos 1500 4.1 03:59:09 10° NNW 04:02:27 27° W 04:03:18 25° WSW
Cosmos 1812 3.3 04:01:20 25° WSW 04:02:56 36° WNW 04:06:32 10° N
Cosmos 2173 Rocket 4.2 03:56:43 10° N 04:03:05 80° E 04:09:28 10° S
Cosmos 1707 Rocket 3.4 03:59:00 10° SSW 04:03:19 77° W 04:07:41 10° N
ADEOS II 4.0 04:03:37 10° NW 04:05:16 11° NW 04:06:19 11° WNW
SL-16 R/B 2.2 03:59:45 10° SSW 04:05:22 81° WNW 04:11:06 10° NNE
USA 305 4.1 04:03:30 17° WNW 04:06:13 33° NNW 04:10:05 10° NE
CZ-4C R/B 4.1 04:06:18 24° WSW 04:06:31 24° W 04:09:30 10° NW
Cosmos 1666 2.8 04:04:27 10° NNW 04:08:11 51° W 04:11:51 10° S
Cosmos 1937 Rocket 3.4 04:03:25 10° NNW 04:08:35 78° WSW 04:13:41 10° SSE
ARIANE 5 R/B 4.0 04:06:36 10° NNW 04:10:00 18° WNW 04:11:42 16° W
Gbstr 26 Del rocket 4.4 04:02:13 10° WNW 04:10:09 64° SW 04:17:10 10° SE
USA 306 4.1 04:07:32 15° WNW 04:10:27 32° N 04:14:18 10° NE
ADEOS 3.8 04:05:42 10° NNE 04:10:56 76° ESE 04:16:10 10° S
IDEFIX/ARIANE 42P 3.9 04:11:05 10° NNW 04:15:04 22° WNW 04:17:39 16° W
Cosmos 841 Rocket 3.7 04:13:12 10° SSW 04:18:24 75° ESE 04:23:40 10° NNE
Cosmos 2228 Rocket 4.4 04:17:08 17° WSW 04:18:55 21° WNW 04:22:21 10° NNW
CZ-2C R/B 2.7 04:14:36 10° N 04:19:33 51° WNW 04:24:34 10° SW
Cosmos 1733 Rocket 2.9 04:15:54 10° NNW 04:20:16 77° W 04:24:35 10° S
SAR-Lupe-4 3.5 04:17:10 10° S 04:20:44 77° WSW 04:24:21 10° NNW
Cosmos 2061 Rocket 4.3 04:15:48 10° N 04:22:16 76° E 04:28:41 10° SSE
Cosmos 44 Rocket 3.8 04:18:33 10° SSW 04:23:11 59° ESE 04:27:58 10° NE
SL-4 R/B 2.5 04:21:29 12° SW 04:25:41 70° SSE 04:30:29 10° ENE
Cosmos 1763 Rocket 3.7 04:22:02 10° SW 04:27:13 52° WNW 04:32:25 10° NNE
Cosmos 2219 Rocket 4.4 04:25:31 10° SSE 04:30:15 28° ESE 04:35:02 10° NE
SAR-Lupe-1 4.1 04:29:25 10° S 04:32:55 56° WSW 04:36:28 10° NNW
FALCON 9 DEB 3.1 04:30:09 12° SW 04:33:18 84° SSE 04:36:46 10° ENE
Cosmos 2016 Rocket 4.0 04:27:37 10° N 04:33:47 89° W 04:39:53 10° S
Meteor 1-4 Rocket 3.9 04:33:50 12° WSW 04:36:06 20° WNW 04:38:45 10° NNW
Cosmos 1862 Rocket 3.5 04:33:07 10° SSW 04:37:30 68° W 04:41:51 10° N
SJ 16-02 2.8 04:34:49 10° WNW 04:37:37 17° W 04:40:23 10° SW
USA 307 4.3 04:34:34 10° WNW 04:38:21 29° N 04:42:07 10° ENE
Cosmos 1000 Rocket 4.5 04:32:22 10° SSW 04:38:29 66° W 04:44:38 10° N
Cosmos 1975 4.3 04:35:13 10° N 04:39:05 43° ENE 04:42:54 10° SSE
Cosmos 1570 Rocket 4.0 04:34:23 10° SSW 04:39:42 76° WNW 04:45:05 10° NNE
USA 276 2.8 04:37:04 10° WNW 04:40:14 53° NNE 04:43:25 10° E
NOSS 3-4 (A) 3.9 04:33:26 10° NW 04:40:26 71° SW 04:48:10 10° SSE
NOSS 3-4 (C) 3.9 04:33:33 10° NW 04:40:33 71° SW 04:48:17 10° SSE
USA 267 4.1 04:34:55 10° NE 04:40:56 40° NNW 04:46:55 10° W
USA 308 4.3 04:37:48 10° WNW 04:41:34 29° N 04:45:20 10° ENE
Meteor 2-20 4.4 04:35:49 10° SSW 04:41:57 78° W 04:48:06 10° N
BREEZE-M DEB (TANK) 2.6 04:36:08 10° WSW 04:42:41 66° SSE 04:45:18 10° E
BREEZE-M DEB (TANK) 3.9 04:40:45 10° W 04:44:03 66° N 04:54:22 10° E
H-2A R/B 3.8 04:43:05 10° WSW 04:45:25 14° W 04:47:46 10° WNW
Cosmos 2333 Rocket 3.7 04:40:10 10° S 04:45:30 41° ESE 04:50:52 10° NE
Cosmos 1743 2.6 04:43:03 10° NNW 04:46:51 67° W 04:50:36 10° S
ERBS 3.5 04:44:06 10° W 04:47:06 29° NNW 04:50:06 10° NE
Lacrosse 5 3.4 04:49:11 10° WNW 04:53:24 25° N 04:57:38 10° NE
Cosmos 1725 Rocket 4.0 04:47:16 10° N 04:53:27 78° W 04:59:36 10° S
Cosmos 2322 4.4 04:48:33 10° S 04:54:06 60° ESE 04:59:41 10° NNE
Cosmos 540 Rocket 3.6 04:49:25 10° SW 04:54:30 56° WNW 04:59:37 10° NNE
Cosmos 1864 Rocket 4.5 04:48:15 10° NNW 04:54:31 75° W 05:00:41 10° S
